When you browse on this site, cookies collect data to enhance your experience and personalize the content and advertising you see.
Visit our Privacy Policy to learn more. By continuing to use the site, you agree to this use of cookies and data.
  • In Hungary
  • List of Countries
  • For 7 days
  • Water Temperature
  • Satellite Maps
  • Weather Map
  • News
  • Weather Widgets
  • user-avatar
    Login

    Hourly Weather Chadziajowka

    Today, 26 May, Sunday

    Time Temperature Precipitation Wind Pressure Humidity
    00:00 +13°C° 0 mm 1 mps 736 mmHg 89%
    01:00 +12°C° 0 mm 1 mps 736 mmHg 89%
    02:00 +12°C° 0 mm 1 mps 736 mmHg 90%
    03:00 +12°C° 0 mm 1 mps 736 mmHg 91%
    04:00 +12°C° 0 mm 1 mps 736 mmHg 92%
    05:00 +13°C° 0 mm 2 mps 736 mmHg 88%
    06:00 +15°C° 0 mm 2 mps 736 mmHg 85%
    07:00 +16°C° 0 mm 2 mps 736 mmHg 81%
    08:00 +18°C° 0.2 mm 3 mps 736 mmHg 78%
    09:00 +19°C° 0.2 mm 3 mps 736 mmHg 74%
    10:00 +20°C° 0.2 mm 4 mps 736 mmHg 70%
    11:00 +21°C° 0.2 mm 4 mps 736 mmHg 67%
    12:00 +21°C° 0.2 mm 4 mps 736 mmHg 64%
    13:00 +22°C° 0.2 mm 4 mps 735 mmHg 61%
    14:00 +22°C° 0.1 mm 3 mps 735 mmHg 60%
    15:00 +22°C° 0.1 mm 3 mps 735 mmHg 59%
    16:00 +22°C° 0.1 mm 3 mps 735 mmHg 59%
    17:00 +21°C° 0.1 mm 2 mps 735 mmHg 65%
    18:00 +19°C° 0.1 mm 2 mps 735 mmHg 71%
    19:00 +19°C° 0.1 mm 1 mps 735 mmHg 78%
    20:00 +18°C° 0 mm 1 mps 735 mmHg 81%
    21:00 +16°C° 0 mm 1 mps 735 mmHg 84%
    22:00 +15°C° 0 mm 2 mps 735 mmHg 87%
    23:00 +14°C° 0 mm 2 mps 735 mmHg 89%

    Tomorrow, 27 May, Monday

    Time Temperature Precipitation Wind Pressure Humidity
    00:00 +14°C° 0 mm 2 mps 735 mmHg 91%
    01:00 +14°C° 0 mm 2 mps 735 mmHg 92%
    02:00 +14°C° 0 mm 2 mps 735 mmHg 92%
    03:00 +13°C° 0 mm 2 mps 734 mmHg 92%
    04:00 +13°C° 0 mm 2 mps 734 mmHg 92%
    05:00 +15°C° 0 mm 2 mps 734 mmHg 88%
    06:00 +17°C° 0 mm 3 mps 734 mmHg 84%
    07:00 +19°C° 0 mm 3 mps 734 mmHg 79%
    08:00 +20°C° 0.5 mm 3 mps 734 mmHg 76%
    09:00 +21°C° 0.5 mm 4 mps 734 mmHg 72%
    10:00 +23°C° 0.5 mm 5 mps 734 mmHg 68%
    11:00 +23°C° 0.5 mm 5 mps 734 mmHg 66%
    12:00 +23°C° 0.5 mm 4 mps 734 mmHg 64%
    13:00 +25°C° 0.5 mm 4 mps 734 mmHg 62%
    14:00 +25°C° 0.3 mm 3 mps 734 mmHg 62%
    15:00 +25°C° 0.3 mm 3 mps 733 mmHg 61%
    16:00 +25°C° 0.3 mm 2 mps 733 mmHg 60%
    17:00 +24°C° 0.2 mm 2 mps 733 mmHg 66%
    18:00 +21°C° 0.2 mm 2 mps 733 mmHg 71%
    19:00 +21°C° 0.2 mm 1 mps 733 mmHg 76%
    20:00 +20°C° 0.1 mm 1 mps 733 mmHg 78%
    21:00 +20°C° 0.1 mm 1 mps 733 mmHg 80%
    22:00 +19°C° 0.1 mm 1 mps 733 mmHg 81%
    23:00 +17°C° 0.5 mm 0 mps 732 mmHg 84%

    Day after tomorrow, 28 May, Tuesday

    Time Temperature Precipitation Wind Pressure Humidity
    00:00 +16°C° 0.5 mm 0 mps 732 mmHg 87%
    01:00 +16°C° 0.5 mm 0 mps 731 mmHg 90%
    02:00 +18°C° 0.4 mm 1 mps 731 mmHg 92%
    03:00 +16°C° 0.4 mm 1 mps 730 mmHg 94%
    04:00 +16°C° 0.4 mm 2 mps 730 mmHg 96%
    05:00 +17°C° 0 mm 3 mps 730 mmHg 92%
    06:00 +18°C° 0 mm 3 mps 730 mmHg 89%
    07:00 +20°C° 0 mm 4 mps 730 mmHg 85%
    08:00 +21°C° 0 mm 4 mps 730 mmHg 77%
    09:00 +22°C° 0 mm 4 mps 729 mmHg 69%
    10:00 +23°C° 0 mm 5 mps 729 mmHg 61%
    11:00 +23°C° 0.1 mm 4 mps 729 mmHg 62%
    12:00 +25°C° 0.1 mm 4 mps 729 mmHg 63%
    13:00 +25°C° 0.1 mm 3 mps 728 mmHg 63%
    14:00 +24°C° 1 mm 3 mps 728 mmHg 67%
    15:00 +24°C° 1 mm 3 mps 728 mmHg 71%
    16:00 +23°C° 1 mm 2 mps 727 mmHg 75%
    17:00 +21°C° 1.4 mm 2 mps 727 mmHg 78%
    18:00 +20°C° 1.4 mm 2 mps 727 mmHg 81%
    19:00 +19°C° 1.4 mm 2 mps 727 mmHg 84%
    20:00 +18°C° 0.3 mm 3 mps 728 mmHg 88%
    21:00 +17°C° 0.3 mm 4 mps 728 mmHg 91%
    22:00 +15°C° 0.3 mm 4 mps 728 mmHg 94%
    23:00 +14°C° 0 mm 4 mps 728 mmHg 94%

    29 May, Wednesday

    Time Temperature Precipitation Wind Pressure Humidity
    00:00 +13°C° 0 mm 5 mps 729 mmHg 94%
    01:00 +12°C° 0 mm 5 mps 729 mmHg 94%
    02:00 +11°C° 0 mm 4 mps 729 mmHg 93%
    03:00 +11°C° 0 mm 4 mps 730 mmHg 93%
    04:00 +11°C° 0 mm 3 mps 730 mmHg 93%
    05:00 +11°C° 0 mm 3 mps 730 mmHg 92%
    06:00 +11°C° 0 mm 3 mps 731 mmHg 91%
    07:00 +11°C° 0 mm 3 mps 731 mmHg 89%
    08:00 +12°C° 0 mm 3 mps 731 mmHg 85%
    09:00 +13°C° 0 mm 3 mps 732 mmHg 81%
    10:00 +14°C° 0 mm 3 mps 732 mmHg 77%
    11:00 +14°C° 0.7 mm 3 mps 732 mmHg 80%
    12:00 +14°C° 0.7 mm 3 mps 732 mmHg 83%
    13:00 +14°C° 0.7 mm 2 mps 732 mmHg 87%
    14:00 +14°C° 1 mm 2 mps 733 mmHg 88%
    15:00 +13°C° 1 mm 3 mps 733 mmHg 90%
    16:00 +12°C° 1 mm 3 mps 733 mmHg 92%
    17:00 +12°C° 1.1 mm 3 mps 733 mmHg 93%
    18:00 +12°C° 1.1 mm 4 mps 733 mmHg 94%
    19:00 +11°C° 1.1 mm 4 mps 734 mmHg 95%
    20:00 +11°C° 0.5 mm 4 mps 734 mmHg 95%
    21:00 +11°C° 0.5 mm 4 mps 735 mmHg 95%
    22:00 +11°C° 0.5 mm 4 mps 735 mmHg 95%
    23:00 +11°C° 0.2 mm 4 mps 735 mmHg 95%

    30 May, Thursday

    Time Temperature Precipitation Wind Pressure Humidity
    00:00 +10°C° 0.2 mm 4 mps 736 mmHg 95%
    01:00 +10°C° 0.2 mm 3 mps 736 mmHg 95%
    02:00 +10°C° 0.2 mm 3 mps 736 mmHg 96%
    03:00 +10°C° 0.2 mm 3 mps 737 mmHg 96%
    04:00 +10°C° 0.2 mm 3 mps 737 mmHg 97%
    05:00 +11°C° 0.2 mm 4 mps 738 mmHg 95%
    06:00 +10°C° 0.2 mm 5 mps 738 mmHg 93%
    07:00 +10°C° 0.2 mm 7 mps 739 mmHg 92%
    08:00 +10°C° 0.1 mm 6 mps 739 mmHg 88%
    09:00 +11°C° 0.1 mm 6 mps 740 mmHg 84%
    10:00 +12°C° 0.1 mm 5 mps 740 mmHg 80%
    11:00 +13°C° 0 mm 5 mps 741 mmHg 72%
    12:00 +15°C° 0 mm 5 mps 741 mmHg 65%
    13:00 +17°C° 0 mm 4 mps 741 mmHg 58%
    14:00 +17°C° 0 mm 4 mps 741 mmHg 58%
    15:00 +17°C° 0 mm 4 mps 741 mmHg 57%
    16:00 +17°C° 0 mm 3 mps 741 mmHg 57%
    17:00 +16°C° 0 mm 3 mps 741 mmHg 62%
    18:00 +14°C° 0 mm 2 mps 741 mmHg 68%
    19:00 +13°C° 0 mm 1 mps 741 mmHg 73%
    20:00 +12°C° 0 mm 1 mps 742 mmHg 75%
    21:00 +11°C° 0 mm 1 mps 742 mmHg 77%
    22:00 +8°C° 0 mm 0 mps 742 mmHg 78%
    23:00 +9°C° 0 mm 1 mps 742 mmHg 79%

    31 May, Friday

    Time Temperature Precipitation Wind Pressure Humidity
    00:00 +9°C° 0 mm 1 mps 742 mmHg 79%
    01:00 +8°C° 0 mm 2 mps 742 mmHg 79%
    02:00 +8°C° 0 mm 2 mps 742 mmHg 81%
    03:00 +7°C° 0 mm 2 mps 742 mmHg 82%
    04:00 +7°C° 0 mm 2 mps 741 mmHg 84%
    05:00 +9°C° 0 mm 3 mps 741 mmHg 79%
    06:00 +11°C° 0 mm 3 mps 741 mmHg 75%
    07:00 +13°C° 0 mm 3 mps 741 mmHg 71%
    08:00 +15°C° 0 mm 4 mps 741 mmHg 68%
    09:00 +18°C° 0 mm 4 mps 741 mmHg 66%
    10:00 +20°C° 0 mm 5 mps 741 mmHg 63%
    11:00 +20°C° 0.5 mm 5 mps 741 mmHg 65%
    12:00 +20°C° 0.5 mm 5 mps 740 mmHg 68%
    13:00 +20°C° 0.5 mm 6 mps 740 mmHg 70%
    14:00 +19°C° 0.6 mm 6 mps 741 mmHg 75%
    15:00 +17°C° 0.6 mm 5 mps 741 mmHg 79%
    16:00 +16°C° 0.6 mm 5 mps 741 mmHg 83%
    17:00 +15°C° 0.2 mm 5 mps 742 mmHg 86%
    18:00 +14°C° 0.2 mm 5 mps 742 mmHg 88%
    19:00 +12°C° 0.2 mm 5 mps 743 mmHg 90%
    20:00 +11°C° 0 mm 4 mps 743 mmHg 91%
    21:00 +10°C° 0 mm 3 mps 744 mmHg 92%
    22:00 +8°C° 0 mm 2 mps 744 mmHg 94%
    23:00 +8°C° 0 mm 1 mps 745 mmHg 93%
    Show more